COSMOS 2251 DEB

Satellite information

Favourite Embed

Satellite Type and Status

DEBRISIN ORBIT

Key statistics

Satellite COSMOS 2251 DEB at a glance.

Uptime

11649

Days in orbit

Revolutions

≈ 14.4

Per day

Orbit

LEO

Low Earth Orbit

Inclination

74.2

Latest

Satellite identification and parameters

Extended collection of information and parameters for COSMOS 2251 DEB.

Object identification

Identified? True

Debris? True

Object name: COSMOS 2251 DEB

International designator: 1993-036ACW

Object number (NORAD): 34883

Object ID (CCSDS): 34883

Country: COMMONWEALTH OF INDEPENDENT STATES (CIS)

Current information (Y/N): Y

RCS size: SMALL

Orbital parameters

Period: 99.678 minutes

Inclination: 74.2007 deg

SMA: 7121.33 km

Apoapsis: 816.61 km

Periapsis: 669.781 km

RAAN: 108.8379 deg

Eccentricy: 0.0103091

Argument of periapsis: 349.9788 deg

Mean anomaly: 9.9312 deg

Mean motion: 14.44644708 rev/day

Mean motion (dot): 0.00020182 rev/day2

B* drag term: 0.0054508 1/REarth

Two-line elements (TLE)

Creation date: May 8, 2025, 3:01 a.m.

Reference frame: TEME

Reference center: EARTH

Epoch: May 7, 2025, 9:23 a.m. UTC

TLE line 0: 0 COSMOS 2251 DEB

TLE line 1: 1 34883U 93036ACW 25127.39161054 .00020182 00000-0 54508-2 0 9990

TLE line 2: 2 34883 74.2007 108.8379 0103091 349.9788 9.9312 14.44644708832667

Live tracking on map

Real-time ground track for satellite COSMOS 2251 DEB.

In-orbit conjunctions

A list of the most updated potential collisions computed for object COSMOS 2251 DEB.

Target Orbit TCA Probability of collision Miss distance Type
CZ-6A DEB LEO 2024-09-21 12:01:48 0.000106325 476.0 (m) DEBRIS
CZ-6A DEB SSO 2024-06-13 05:15:32 0.0001809242 60.0 (m) DEBRIS

Associated space launch

Military communications satellite. Destroyed in a collision with Iridium 33.

COSMOS 2251 DEB was lifted into orbit during the mission ‘Kosmos-3M | Strela-2M 51’, on board a Kosmos-3M space rocket.

The launch took place on June 16, 1993, 4:17 a.m. from 132/1 (132L).

For more information about the launch, click the button.

Launch to space Kosmos-3M | Strela-2M 51
Kosmos-3M | Strela-2M 51

Agency: N/A

Status: Launch Successful

Launch date: June 16, 1993, 4:17 a.m. UTC

Rocket: Kosmos-3M

Launch pad: 132/1 (132L)

Location: Plesetsk Cosmodrome, Russian Federation

...

Latest news about this satellite

There are no fresh news available about this satellite. Check back as we update our databases every day.


Newsletter sign-up

Weekly statistics, charts and insights to help you stay on top of the space industry.